CW7283 Weather Reports


time (UTC)temp
C
wind
direction
speed
KPH
gust
KPH
rain 1hr
cm
rain 24hr
cm
rain mn
cm
humidity
%
barometer
mb
20260901230328 23 113 1.6 9.7 0.00 0.00 0.00 41 1012.3
20260901224855 23 232 1.6 4.8 0.00 0.00 0.00 42 1012.3
20260901223404 23 278 0.0 3.2 0.00 0.00 0.00 40 1012.3
20260901221841 23 246 0.0 4.8 0.00 0.00 0.00 42 1012.4
20260901220353 23 263 1.6 12.9 0.00 0.00 0.00 40 1012.3
20260901214834 25 287 0.0 3.2 0.00 0.00 0.00 38 1012.3
20260901213348 25 355 0.0 3.2 0.00 0.00 0.00 34 1012.1
20260901211832 25 286 0.0 3.2 0.00 0.00 0.00 35 1012.0
20260901210351 26 235 0.0 3.2 0.00 0.00 0.00 36 1011.9
20260901204850 26 201 0.0 6.4 0.00 0.00 0.00 37 1011.8
20260901203404 26 290 0.0 6.4 0.00 0.00 0.00 37 1011.8
20260901201849 27 109 0.0 4.8 0.00 0.00 0.00 35 1011.8
20260901200341 27 148 0.0 4.8 0.00 0.00 0.00 34 1011.8
20260901194841 27 98 0.0 8.0 0.00 0.00 0.00 34 1011.8
20260901193348 27 121 0.0 4.8 0.00 0.00 0.00 36 1011.9
20260901191828 27 254 0.0 4.8 0.00 0.00 0.00 37 1011.9
20260901190341 27 199 1.6 19.3 0.00 0.00 0.00 35 1012.3
20260901184839 27 78 1.6 8.0 0.00 0.00 0.00 37 1012.4
20260901183355 26 119 0.0 6.4 0.00 0.00 0.00 37 1012.5
20260901181849 24 203 0.0 3.2 0.00 0.00 0.00 40 1012.9
20260901180400 23 206 0.0 3.2 0.00 0.00 0.00 38 1013.0
20260901174837 23 254 0.0 3.2 0.00 0.00 0.00 41 1013.4
20260901173350 22 115 0.0 3.2 0.00 0.00 0.00 40 1013.5
20260901171846 22 311 0.0 1.6 0.00 0.00 0.00 37 1013.7
20260901170334 21 355 0.0 3.2 0.00 0.00 0.00 39 1013.8
20260901164843 21 295 0.0 1.6 0.00 0.00 0.00 40 1014.0
20260901163337 21 55 0.0 3.2 0.00 0.00 0.00 38 1013.9
20260901161850 20 17 0.0 3.2 0.00 0.00 0.00 39 1014.0
20260901160341 18 318 0.0 3.2 0.00 0.00 0.00 42 1014.0
20260901154836 17 321 0.0 3.2 0.00 0.00 0.00 44 1014.2
20260901153345 15 46 0.0 3.2 0.00 0.00 0.00 49 1014.2
20260901151839 14 360 0.0 0.0 0.00 0.00 0.00 51 1014.2
20260901150330 13 360 0.0 3.2 0.00 0.00 0.00 56 1014.2
20260901144827 12 295 0.0 1.6 0.00 0.00 0.00 52 1014.1
20260901143327 11 279 0.0 0.0 0.00 0.00 0.00 62 1014.3
20260901141844 11 279 0.0 0.0 0.00 0.00 0.00 66 1013.9
20260901140327 11 279 0.0 0.0 0.00 0.00 0.00 64 1014.1
20260901134828 10 279 0.0 0.0 0.00 0.00 0.00 66 1014.0
20260901133348 10 279 0.0 0.0 0.00 0.00 0.00 64 1013.7
20260901131850 10 279 0.0 0.0 0.00 0.00 0.00 63 1013.8
20260901130401 10 279 0.0 0.0 0.00 0.00 0.00 61 1014.0
20260901124829 10 279 0.0 0.0 0.00 0.00 0.00 60 1013.9
20260901123346 10 279 0.0 0.0 0.00 0.00 0.00 58 1013.8
20260901121850 10 279 0.0 0.0 0.00 0.00 0.00 55 1013.8
20260901120323 10 279 0.0 0.0 0.00 0.00 0.00 54 1013.9
20260901114836 10 279 0.0 0.0 0.00 0.00 0.00 58 1014.0
20260901113331 10 279 0.0 0.0 0.00 0.00 0.00 58 1014.1
20260901111827 10 279 0.0 0.0 0.00 0.00 0.00 58 1014.2
20260901110339 11 279 0.0 0.0 0.00 0.00 0.00 57 1014.2
20260901104834 10 279 0.0 0.0 0.00 0.00 0.00 55 1014.3
20260901103352 10 279 0.0 0.0 0.00 0.00 0.00 55 1014.2
20260901101842 11 320 0.0 0.0 0.00 0.00 0.00 54 1014.2
20260901100346 11 320 0.0 0.0 0.00 0.00 0.00 52 1014.2
20260901094834 11 327 0.0 0.0 0.00 0.00 0.00 52 1014.3
20260901093351 11 304 0.0 1.6 0.00 0.00 0.00 52 1014.7
20260901091849 11 300 0.0 0.0 0.00 0.00 0.00 52 1014.7
20260901090341 11 311 0.0 3.2 0.00 0.00 0.00 52 1014.8
20260901084831 11 308 0.0 0.0 0.00 0.00 0.00 53 1014.9
20260901083330 10 312 0.0 0.0 0.00 0.00 0.00 54 1015.2
20260901081843 10 295 0.0 0.0 0.00 0.00 0.00 56 1015.3
20260901080349 10 291 0.0 0.0 0.00 0.00 0.00 57 1015.3
20260901074844 10 289 0.0 0.0 0.00 0.00 0.00 59 1015.5
20260901073406 10 286 0.0 0.0 0.00 0.00 0.00 60 1015.9
20260901071845 10 286 0.0 0.0 0.00 0.00 0.00 62 1015.9
20260901070325 10 285 0.0 0.0 0.00 0.00 0.00 61 1016.2
20260901064904 10 285 0.0 0.0 0.00 0.00 0.00 62 1016.4
20260901063328 10 275 0.0 0.0 0.00 0.00 0.00 62 1016.4
20260901061837 11 200 0.0 0.0 0.00 0.00 0.00 62 1016.5
20260901060329 11 200 0.0 0.0 0.00 0.00 0.00 63 1016.5
20260901054859 11 195 0.0 0.0 0.00 0.00 0.00 59 1016.5
20260901053357 12 195 0.0 0.0 0.00 0.00 0.00 60 1016.5
20260901051852 12 195 0.0 0.0 0.00 0.00 0.00 58 1016.5
20260901050345 12 226 0.0 0.0 0.00 0.00 0.00 58 1016.6
20260901044846 13 226 0.0 0.0 0.00 0.00 0.00 57 1016.5
20260901043334 13 226 0.0 0.0 0.00 0.00 0.00 54 1016.5
20260901041832 13 226 0.0 0.0 0.00 0.00 0.00 53 1016.5
20260901040350 14 254 0.0 0.0 0.00 0.00 0.00 51 1016.5
20260901034842 15 171 0.0 0.0 0.00 0.00 0.00 51 1016.6
20260901033346 15 59 0.0 0.0 0.00 0.00 0.00 46 1016.4
20260901031845 16 60 0.0 0.0 0.00 0.00 0.00 44 1016.5
20260901030350 17 59 0.0 0.0 0.00 0.00 0.00 42 1016.3
20260901024904 17 51 0.0 0.0 0.00 0.00 0.00 42 1016.0
20260901023359 18 51 0.0 0.0 0.00 0.00 0.00 42 1015.9
20260901021833 19 49 0.0 0.0 0.00 0.00 0.00 40 1015.8
20260901020329 20 49 0.0 0.0 0.00 0.00 0.00 40 1015.8
20260901014839 21 49 0.0 0.0 0.00 0.00 0.00 35 1015.7
20260901013334 22 49 0.0 0.0 0.00 0.00 0.00 34 1015.4
20260901011829 22 49 0.0 0.0 0.00 0.00 0.00 33 1015.2
20260901010329 23 49 0.0 0.0 0.00 0.00 0.00 30 1015.3
20260901004842 23 49 0.0 0.0 0.00 0.00 0.00 29 1015.3
20260901003330 24 49 0.0 0.0 0.00 0.00 0.00 29 1015.3
20260901001832 25 48 0.0 0.0 0.00 0.00 0.00 28 1015.3
20260901000330 26 72 0.0 0.0 0.00 0.00 0.00 27 1015.3
20260831234827 25 97 0.0 0.0 0.00 0.00 0.00 28 1015.4
20260831233353 26 127 0.0 3.2 0.00 0.00 0.00 28 1015.6
20260831231837 26 330 0.0 0.0 0.00 0.00 0.00 30 1015.8